DELTA 1 DEB, 14470

Orbit data source: Space-Track

DELTA 1 DEB, 14470 is space debris in SSO originally from a launch on Tue, 06 Nov 1973 UTC launched from the Air Force Western Test Range (AFWTR). Debris objects in space refer to the collection of defunct objects orbiting the Earth. Examples of debris include non-operational satellites, rocket bodies, and fragments generated from explosions, collisions, or faulty payload assembly.

Loading next visibility...
Identifier
14470, 1973-086GP
Orbit
SSO
Country
Flag of USUS
Related business
Manufacturer
Unknown
Mission
Spacecraft
Bus & Motor
Unknown
Mass
Unknown
Launch date (UTC)
1973-11-06 (53 years ago)
Launch vehicle
Unknown
Launch site
Air Force Western Test Range (AFWTR)
Object type
Payload
Rocket body
Debris
Shape & HBR
Unknown shape, 0.1 m
Radar Cross Section
Medium (>0.1 m² and <1 m²)

Expand to show TLE details & history
Last TLE update: 1 day ago

TLE from 1 day ago
0 DELTA 1 DEB
1 14470U 73086GP  26205.98627615  .00000268  00000-0  12770-2 0  9994
2 14470 101.7612 109.9733 0115426 119.3821 310.1097 12.84113391 36319
Epoch: 2026-07-24T23:40Z
TLE epoch observation values (Epoch: 2026-07-24T23:40:14.259Z)
Latitude
65.68806°
Longitude
144.91528°
Altitude
1,279.47 km
Speed
7.249 km/s
True Right ascension
05h 30m 43s
True Declination
65° 34' 03"
Sunlit
Object was in daylight at epoch
Visualization orbit readout
Latitude
Unknown
Longitude
Unknown
Altitude
Unknown
Speed
Unknown
Apparent Right ascension
Unknown
Apparent Declination
Unknown
Sunlit
N/A
Visualization observer readout
Local Sidereal Time
21:20:17
Azimuth
Unknown
Elevation
Unknown
Doppler factor
Unknown
Orbital elements
Apogee altitude
1,411.363 km
Perigee altitude
1,233.593 km
Semi-major axis
7,700.615 km
Eccentricity
0.01154
Inclination
101.7612°
RAAN
109.9733°
Arg. of periapsis
119.3821°
True anomaly
309.08866°
Mean anomaly
310.1097°
Eccentric anomaly
309.60013°
Mean motion
3.21185 °/min
Orbital period
112.08 mins
BSTAR
0.001277
Loading maneuver chart data...
Computing Atmospheric mass density...
Loading historical data...
Loading historical data...
Loading historical data...
Loading historical data...
Loading historical data...
Loading historical data...
Loading historical data...

Documentation

Showing up to 5 results
|